Weather in Eastbourne

United Kingdom     50°47′21″N   0°17′10″E
temp.,
°C
wind,
m/s
gust,
m/s
humid.,
%
clouds,
%
prec.,
mm/h
press.,
hPa
HPBL,
m
21 april, wed
wed2101:00+7ne338611 0.0 101843
04:00+6nne338596 0.0 101855
07:00+6nne4886100 0.0 1018179
10:00+10ne697798 0.0 1020526
13:00+12ene797029 0.0 1020929
16:00+11ne911708 0.0 1020888
19:00+8ne812730 0.0 1022647
22:00+5ne914793 0.0 1024616
22 april, thu
thu2201:00+5ne812795 0.0 1024540
04:00+4ne711835 0.0 1025461
07:00+5ene711795 0.0 1026544
10:00+8ene89665 0.0 1027851
13:00+9e810645 0.0 1028801
16:00+9ene810642 0.0 1028681
19:00+8ene811715 0.0 1028520
22:00+5ene711815 0.0 1029360
23 april, fri
fri2301:00+5ene69845 0.0 1029308
04:00+4ene59850 0.0 1029283
07:00+5ene69845 0.0 1030346
10:00+8e78720 0.0 1031565
13:00+9e89670 0.0 1031603
16:00+10ene810610 0.0 1030487
19:00+8ene8127152 0.0 1029365
22:00+6ene71280100 0.0 1029285
24 april, sat
sat2401:00+5ene71283100 0.0 1029300
04:00+6ene71285100 0.0 1029343
07:00+7ene81280100 0.0 1029445
10:00+8ene91271100 0.0 1029559
13:00+9ene91271100 0.0 1028613
16:00+11ene101271100 0.0 1027640
19:00+9ene101476100 0.0 1028515
22:00+7ene91579100 0.0 1028455
25 april, sun
sun2501:00+7ene81488100 0.0 1028406
04:00+6ne71292100 0.0 1027388
07:00+7ene81293100 0.0 1027512
10:00+9ene1013787 0.0 1027705
13:00+10ene1013621 0.0 1026717
16:00+10ene1113682 0.0 1025714
19:00+8ene9137610 0.0 1024592
22:00+6ne915841 0.0 1024435